Regional Weather Roundup
Issued by NWS

Home | Current Version | Previous Version | Graphics & Text | Print | Product List | Glossary On
Versions: 1 2 3 4 5 6 7 8 9 10 11 12 13 14 15 16 17 18 19 20 21 22 23 24 25 26 27 28 29 30 31 32 33 34 35 36 37 38 39 40 41 42 43 44 45 46 47 48 49 50
000
ASUS43 KMKX 121600
RWRWI

WISCONSIN REGIONAL WEATHER ROUNDUP
NATIONAL WEATHER SERVICE MILWAUKEE/SULLIVAN WI
1000 AM CST TUE DEC 12 2017

NOTE: "FAIR" INDICATES FEW OR NO CLOUDS BELOW 12,000 FEET WITH NO
SIGNIFICANT WEATHER AND/OR OBSTRUCTIONS TO VISIBILITY.

WIZ001-002-006>008-014>016-023>028-121700-
NORTHWEST WISCONSIN

CITY           SKY/WX    TMP DP  RH WIND       PRES   REMARKS
SUPERIOR ARPT  CLOUDY     6   0  78 NW6       30.16F WCI  -5
ASHLAND        CLOUDY     9   2  73 W9        30.12S WCI  -4
HAYWARD        CLOUDY     5  -1  76 W3        30.11S
SIREN          CLOUDY     6   1  80 NW5       30.15F WCI  -3
CUMBERLAND     CLOUDY     5   0  78 NW8       30.12F WCI  -8
RICE LAKE      PTSUNNY    6   2  84 CALM      30.15F
CHETEK         CLOUDY     6   1  80 W6        30.15F WCI  -4
LADYSMITH      MOSUNNY    7   1  77 NW6       30.12F WCI  -4
EAU CLAIRE     NOT AVBL
MENOMONIE      MOSUNNY    8   2  77 W9        30.18F WCI  -6
NEW RICHMOND   MOSUNNY    7   0  73 NW10      30.17F WCI  -7
OSCEOLA        CLOUDY     7   1  76 W6        30.21F WCI  -4
$$

WIZ003>005-009-010-017-018-121700-
NORTH CENTRAL WISCONSIN

CITY           SKY/WX    TMP DP  RH WIND       PRES   REMARKS
MANITOWISH WTR CLOUDY     6   2  82 W7        30.01S HAZE    WCI  -6
ARBOR VITAE    LGT SNOW   9   3  78 NW7       30.00F WCI  -2
WOODRUFF       LGT SNOW   9   3  78 NW7       30.00F WCI  -2
RHINELANDER    CLOUDY     8   2  76 NW8       30.00S WCI  -4
EAGLE RIVER    CLOUDY    10   2  69 NW9       29.97F WCI  -3
LAND O LAKES   LGT SNOW  10   5  79 NW7       29.98F WCI  -1
PHILLIPS       CLOUDY     4  -1  79 NW7       30.05F WCI  -8
TOMAHAWK       PTSUNNY    8   1  73 NW9       30.04S WCI  -6
MEDFORD        PTSUNNY    5  -1  76 N9        30.05F WCI  -9
MERRILL        MOSUNNY   10   0  64 NW8G16    30.05F WCI  -3
$$

WIZ029-030-035-036-043>047-121700-
CENTRAL WISCONSIN

CITY           SKY/WX    TMP DP  RH WIND       PRES   REMARKS
WAUSAU         SUNNY     11   0  61 NW12      30.04F WCI  -3
MOSINEE        MOSUNNY   10   3  72 NW9       30.06F WCI  -2
MARSHFIELD     SUNNY      8   2  76 NW13      30.07F WCI  -8
STEVENS POINT  PTSUNNY   11   1  62 NW8       30.08S WCI  -1
WAUPACA        PTSUNNY   18   4  54 N10       30.08S WCI   6
WAUTOMA        FLURRIES  13   6  74 W13       30.10S WCI  -2
WISC RAPIDS    MOSUNNY   11   2  67 NW13      30.11S WCI  -4
CAMP DOUGLAS   MOSUNNY   12   3  67 NW13      30.13S WCI  -3
$$

WIZ011>013-019>022-031-037>040-048>050-121700-
NORTHEAST WISCONSIN

CITY           SKY/WX    TMP DP  RH WIND       PRES   REMARKS
ANTIGO         CLOUDY    10   3  73 NW14      30.00F WCI  -6
SHAWANO        CLOUDY    17   8  67 NW3       30.06S
OCONTO         CLOUDY    14   4  67 N7        30.06S WCI   3
STURGEON BAY   MOSUNNY   14   3  61 NW24G31   30.02F WCI  -5
GREEN BAY      CLOUDY    17   7  64 NW14G21   30.06S WCI   3
MANITOWOC      FLURRIES  16   6  65 NW15G21   30.05S WCI   1
APPLETON       CLOUDY    16   1  53 NW13G21   30.04S WCI   2
CLINTONVILLE   CLOUDY    16   1  53 N9G20     30.06S WCI   4
OSHKOSH        CLOUDY    17   6  62 NW13      30.06S WCI   4
$$

WIZ032>034-041-042-053>061-121700-
SOUTHWEST WISCONSIN

CITY           SKY/WX    TMP DP  RH WIND       PRES   REMARKS
LA CROSSE      SUNNY     15   4  61 N13       30.19S WCI   1
SPARTA         SUNNY     12   5  74 NW9       30.17S WCI   0
VIROQUA        SUNNY     10   6  81 NW13      30.13R WCI  -5
BOSCOBEL       SUNNY     17   5  59 W6        30.20R WCI   9
PRAIRIE DU CHI SUNNY     15   5  64 NW10      30.21R WCI   3
PLATTEVILLE    SUNNY     16   9  75 NW15      30.16R WCI   1
$$

WIZ056-057-062-063-064-067-068-121700-
SOUTH CENTRAL WISCONSIN

CITY           SKY/WX    TMP DP  RH WIND       PRES   REMARKS
REEDSBURG      MOSUNNY   12   3  66 NW12G17   30.13R WCI  -2
BARABOO/DELLS  PTSUNNY   13   3  65 NW9       30.12R WCI   0
LONE ROCK      NOT AVBL
MINERAL POINT  SUNNY     18   9  68 NW12G17   30.13R WCI   5
MADISON        MOSUNNY   15   4  61 N12G21    30.12R WCI   2
MIDDLETON      MOSUNNY   17   6  64 NW13      30.13R WCI   3
WATERTOWN      MOSUNNY   16   6  64 NW13G18   30.09S WCI   2
MONROE         MOSUNNY   18   7  62 NW12G17   30.10S WCI   5
JANESVILLE     MOSUNNY   18   7  62 NW17      30.12R WCI   2
$$

WIZ051-052-058>065-066-070>072-121700-
SOUTHEAST WISCONSIN

CITY           SKY/WX    TMP DP  RH WIND       PRES   REMARKS
MILWAUKEE      MOSUNNY   19   5  54 NW15G25   30.07R WCI   5
WAUKESHA       MOSUNNY   14   3  62 NW12G18   30.08R WCI   0
MILWAUKEE/TIMM PTSUNNY   18   3  53 NW16      30.08R WCI   3
RACINE         SUNNY     19   5  54 NW14G26   30.09R WCI   6
BURLINGTON     MOSUNNY   32  25  74 NW16      30.09R WCI  21
KENOSHA        SUNNY     19   5  54 NW13G28   30.08R WCI   6
FOND DU LAC    CLOUDY    17   3  54 NW16      30.07R WCI   2
SHEBOYGAN      CLOUDY    17   6  62 NW15G23   30.05R WCI   2
WEST BEND      CLOUDY    16   7  67 NW14      30.05S WCI   1
JUNEAU         SUNNY     14   3  61 NW12G22   30.09S WCI   1
$$

LSZ147-162-121700-
LAKE SUPERIOR

STATION/POSITION TIME  TEMP    WIND        PRES    WAVE
                       AIR SEA DIR/SP/G            HT/PER
                 (UTC) (F)     (DEG/KT/KT) (MB)    (FT/S)
DEVILS ISLAND    1500    9     300/ 14/ 16 1021.2F
SAXON HARBOR     1530    9                 1019.3F
$$

LMZ867-665-643>646-121700-
LAKE MICHIGAN

STATION/POSITION TIME  TEMP    WIND        PRES    WAVE
                       AIR SEA DIR/SP/G            HT/PER
                 (UTC) (F)     (DEG/KT/KT) (MB)    (FT/S)
NORTHPORT PIER   1540   17     320/ 27/ 33 1015.9S
KEWAUNEE LAKESHO 1530   15     340/ 14/ 23 1016.6R
SHEBOYGAN LAKESH 1500   16     320/ 15/ 17 1018.7R
PORT WASHINGTON  1540   18     320/ 10/ 15 1019.3R
MILWAUKEE LAKESH 1530   17     300/ 15/ 19   N/A
KENOSHA   LAKESH 1500   17     310/ 15/ 22 1018.3
$$

TC  - TEMPERATURE IN CELSIUS
VSB - VISIBILITY IN STATUTE MILES
WCI - WIND CHILL INDEX
HX  - HEAT INDEX




USA.gov is the U.S. government's official web portal to all federal, state and local government web resources and services.